This demonstration page uses our WeatherBlox Daily Observations layout. Learn more.

Left ArrowRight Arrow

40.92501, -98.34201

Hourly Observations for February 16, 2022

Temp ( °F °C ) Dew Point ( °F °C ) Humidity (%) Winds ( mph kmh ) Pressure ( in mb ) Visibility ( mi km ) Precip ( " mm )
12:53 am 00:53 Clear 29 -1.7 18 -7.8 63 63 NW 8 13 29.68 1005 10 16 0.00 0.00
1:53 am 01:53 Clear 34 1.1 21 -6.1 59 59 N 12 19 29.68 1005 10 16 0.00 0.00
2:53 am 02:53 Clear 34 1.1 21 -6.1 59 59 N 16 26 29.70 1006 10 16 0.00 0.00
3:53 am 03:53 Clear 32 0 20 -6.7 61 61 N 17 28 29.71 1006 10 16 0.00 0.00
4:53 am 04:53 Clear 31 -0.6 19 -7.2 61 61 N 21 33 29.74 1007 10 16 0.00 0.00
5:53 am 05:53 Clear 29 -1.7 18 -7.8 63 63 N 17 28 29.77 1008 10 16 0.00 0.00
6:53 am 06:53 Clear 27 -2.8 18 -7.8 69 69 N 16 26 29.81 1009 10 16 0.00 0.00
7:53 am 07:53 Sunny 27 -2.8 17 -8.3 66 66 N 18 30 29.83 1010 10 16 0.00 0.00
8:02 am 08:02 Sunny 27 -2.8 17 -8.3 66 66 N 18 30 29.88 1012 10 16 0.00 0.00
8:10 am 08:10 Mostly Cloudy 27 -2.8 17 -8.3 66 66 N 18 30 29.88 1012 10 16 0.00 0.00
8:53 am 08:53 Sunny 28 -2.2 17 -8.3 63 63 N 20 31 29.86 1011 10 16 0.00 0.00
9:35 am 09:35 Mostly Cloudy 30 -1.1 18 -7.8 61 61 N 21 33 29.90 1013 10 16 0.00 0.00
9:53 am 09:53 Cloudy 31 -0.6 19 -7.2 61 61 N 20 31 29.87 1012 10 16 0.00 0.00
10:53 am 10:53 Cloudy 34 1.1 19 -7.2 54 54 N 24 39 29.89 1012 10 16 0.00 0.00
11:53 am 11:53 Cloudy 35 1.7 18 -7.8 50 50 NNE 17 28 29.90 1013 10 16 0.00 0.00
11:55 am 11:55 Mostly Cloudy 36 2.2 18 -7.8 48 48 N 17 28 29.91 1013 10 16 0.00 0.00
12:40 pm 12:40 Partly Cloudy 37 2.8 17 -8.3 44 44 N 21 33 29.90 1013 10 16 0.00 0.00
12:53 pm 12:53 Mostly Sunny 36 2.2 16 -8.9 44 44 N 24 39 29.89 1012 10 16 0.00 0.00
1:53 pm 13:53 Partly Cloudy 37 2.8 15 -9.4 41 41 N 21 33 29.87 1011 10 16 0.00 0.00
2:53 pm 14:53 Sunny 37 2.8 15 -9.4 41 41 N 25 41 29.90 1013 10 16 0.00 0.00
3:53 pm 15:53 Sunny 34 1.1 13 -10.6 42 42 NNE 25 41 29.94 1014 10 16 0.00 0.00
4:53 pm 16:53 Cloudy 32 0 9 -12.8 38 38 N 21 33 29.98 1015 10 16 0.00 0.00
5:53 pm 17:53 Cloudy 31 -0.6 7 -13.9 36 36 N 20 31 30.02 1017 10 16 0.00 0.00
6:53 pm 18:53 Cloudy 29 -1.7 6 -14.4 38 38 N 21 33 30.08 1019 10 16 0.00 0.00
7:53 pm 19:53 Cloudy 27 -2.8 5 -15 39 39 N 23 37 30.12 1020 10 16 0.00 0.00
8:53 pm 20:53 Cloudy 27 -2.8 7 -13.9 43 43 N 22 35 30.17 1022 10 16 0.00 0.00
9:53 pm 21:53 Cloudy 27 -2.8 7 -13.9 43 43 N 20 31 30.20 1023 10 16 0.00 0.00
10:53 pm 22:53 Cloudy 25 -3.9 14 -10 63 63 NNE 23 37 30.22 1024 10 16 0.00 0.00
11:53 pm 23:53 Cloudy 24 -4.4 13 -10.6 62 62 NNE 17 28 30.22 1023 10 16 0.00 0.00

Powered by AerisWeather